This is the latest recevied weather packets stored in our database for station/object G1OCN-WX. If no packets are shown the sender has not sent any weather packets the latest 1 day(s).
| Time | Temp. | Humidity | Pressure | Rain* | Wind** | Luminosity | Snow |
|---|---|---|---|---|---|---|---|
| 1778046886 | 8.89° C | 84% | 1012.9 hPa | 0 mm | 4.47 m/s, 65° | - | - |
| 1778046826 | 8.89° C | 84% | 1012.9 hPa | 0 mm | 4.47 m/s, 65° | - | - |
| 1778046766 | 8.89° C | 84% | 1012.9 hPa | 0 mm | 5.81 m/s, 65° | - | - |
| 1778046706 | 8.89° C | 84% | 1012.9 hPa | 0 mm | 5.81 m/s, 64° | - | - |
| 1778046646 | 8.89° C | 84% | 1012.9 hPa | 0 mm | 5.36 m/s, 66° | - | - |
| 1778046586 | 8.89° C | 84% | 1012.9 hPa | 0 mm | 4.47 m/s, 57° | - | - |
| 1778046526 | 8.89° C | 84% | 1012.8 hPa | 0 mm | 5.36 m/s, 55° | - | - |
| 1778046466 | 8.89° C | 85% | 1012.9 hPa | 0 mm | 5.81 m/s, 60° | - | - |
| 1778046406 | 8.89° C | 85% | 1012.9 hPa | 0 mm | 4.02 m/s, 61° | - | - |
| 1778046346 | 8.89° C | 85% | 1012.9 hPa | 0 mm | 4.02 m/s, 64° | - | - |
| 1778046286 | 8.89° C | 85% | 1012.9 hPa | 0 mm | 4.47 m/s, 64° | - | - |
| 1778046226 | 8.89° C | 85% | 1012.8 hPa | 0 mm | 5.81 m/s, 69° | - | - |
| 1778046166 | 8.89° C | 85% | 1012.8 hPa | 0 mm | 5.81 m/s, 66° | - | - |
| 1778046105 | 8.89° C | 85% | 1012.8 hPa | 0 mm | 5.36 m/s, 68° | - | - |
| 1778046045 | 8.89° C | 85% | 1012.8 hPa | 0 mm | 5.81 m/s, 61° | - | - |
| 1778045985 | 8.89° C | 85% | 1012.8 hPa | 0 mm | 5.81 m/s, 63° | - | - |
| 1778045925 | 8.89° C | 85% | 1012.8 hPa | 0 mm | 5.81 m/s, 66° | - | - |
| 1778045865 | 8.89° C | 85% | 1012.8 hPa | 0 mm | 5.81 m/s, 67° | - | - |
| 1778045805 | 8.89° C | 85% | 1012.8 hPa | 0 mm | 5.81 m/s, 67° | - | - |
| 1778045745 | 8.89° C | 85% | 1012.8 hPa | 0 mm | 5.81 m/s, 63° | - | - |
| 1778045685 | 8.89° C | 85% | 1012.8 hPa | 0.25 mm | 5.81 m/s, 61° | - | - |
| 1778045625 | 8.89° C | 85% | 1012.8 hPa | 0.25 mm | 5.81 m/s, 65° | - | - |
| 1778045565 | 8.89° C | 85% | 1012.8 hPa | 0.25 mm | 5.36 m/s, 61° | - | - |
| 1778045505 | 8.89° C | 85% | 1012.8 hPa | 0.25 mm | 5.81 m/s, 67° | - | - |
| 1778045445 | 8.89° C | 85% | 1012.8 hPa | 0.25 mm | 5.81 m/s, 67° | - | - |
* Rain latest hour (hover to see other rain measurements)
** Current wind speed in m/s (hover to see current wind gust speed)